Location: Limerick
(52.6650°N, 8.6230°W)
Time: 19:21:10
(UTC+01:00)

ISS - Pass Details

Date: 23 May 2017
Orbit: 402 x 408 km, 51.6° (Epoch: 29 May)

Event Time Altitude Azimuth Distance (km) Brightness Sun altitude
Rises 03:21:08 0° 276° (W) 2,332 -0.2 -12.9°
Reaches altitude 10° 03:23:14 10° 273° (W) 1,470 -1.2 -12.8°
Maximum altitude 03:26:29 61° 192° (SSW) 464 -3.9 -12.6°
Drops below altitude 10° 03:29:43 10° 112° (ESE) 1,462 -0.9 -12.3°
Sets 03:31:49 0° 109° (ESE) 2,320 0.2 -12.2°
